ASTRA 1M

Last updated on Aug. 4, 2020, 5:33 a.m. UTC

1 33436U 08057A   20216.94111041  .00000101  00000-0  00000-0 0  9993
2 33436   0.0235 116.7125 0005588  18.0980 176.1112  1.00270716 24241
UTC
Height (km)
Latitude
Longitude
Inclination
Orbital Period
UTC large
Height (km)
Speed (km/s)
/
Latitude / Longitude
Inclination (degrees)
Orbital Period (minutes)
Azimuth
Elevation
Range (km)
Doppler Factor
iOS Compass Heading
iOS Angle

Next 30 passes for location: Hong Kong

Rise time Rise Azimuth (degrees) Set time Set Azimuth (degrees) Duration Max altitude (degrees)

No matching passes for this satellites